Weather History for KBRL - June, 2013

Change the Weather History Date:

Sunday, June 16, 2013

  Actual Average Record
Temperature  
Mean Temperature 74 °F 74 °F  
Max Temperature 82 °F 84 °F 102 °F (1918)
Min Temperature 66 °F 63 °F 45 °F (1961)
Degree Days  
Heating Degree Days 0 0  
Month to date heating degree days 15 9  
Since 1 June heating degree days 15 9  
Since 1 July heating degree days 5928 5596  
Cooling Degree Days 9 9  
Month to date cooling degree days 57 113  
Year to date cooling degree days 156 216  
Since 1 June cooling degree days 57 113  
Growing Degree Days 24 (Base 50)    
Moisture  
Dew Point 67 °F    
Average Humidity 78    
Maximum Humidity 93    
Minimum Humidity 62    
Precipitation  
Precipitation 0.00 in 0.15 in 1.53 in (2012)
Month to date precipitation 0.83 2.43  
Year to date precipitation 24.03 16.69  
Sea Level Pressure  
Sea Level Pressure 29.94 in    
Wind  
Wind Speed 4 mph (West)    
Max Wind Speed 10 mph    
Max Gust Speed 14 mph    
Visibility 10 miles    
Events      
T = Trace of Precipitation, MM = Missing Value Source: NWS Daily Summary

Daily Weather History Graph

Daily Weather History Graph

Search for Another Location

Airport or City:

Trip Planner

Search our weather history database for the weather conditions in past years. The results will help you decide how hot, cold, wet, or windy it might be!

Date:

Astronomy

Jun. 16, 2013 Rise Set
Actual Time 5:32 AM CDT 8:38 PM CDT
Civil Twilight 4:59 AM CDT 9:11 PM CDT
Nautical Twilight 4:16 AM CDT 9:54 PM CDT
Astronomical Twilight 3:26 AM CDT 10:44 PM CDT
Moon 1:11 PM CDT (6/16) 12:40 AM CDT (6/16)
Length of Visible Light 16h 12m
Length of Day
15h 05m
Waxing Crescent, 50% of the Moon is Illuminated
Jun 16
Waxing Crescent
Jun 16
First Quarter
Jun 23
Full
Jun 29
Last Quarter
Jul 8
New

Hourly Weather History & Observations

Time (CDT) Temp. Heat Index Dew Point Humidity Pressure Visibility Wind Dir Wind Speed Gust Speed Precip Events Conditions
12:53 AM 69.1 °F - 62.1 °F 78% 29.93 in 10.0 mi WSW 9.2 mph - N/A   Clear
1:53 AM 66.9 °F - 63.0 °F 87% 29.91 in 10.0 mi SW 4.6 mph - N/A   Clear
2:53 AM 66.9 °F - 64.0 °F 90% 29.92 in 10.0 mi SW 6.9 mph - N/A   Clear
3:53 AM 66.9 °F - 64.9 °F 93% 29.92 in 10.0 mi WSW 5.8 mph - N/A   Mostly Cloudy
4:53 AM 66.9 °F - 64.9 °F 93% 29.94 in 10.0 mi WSW 3.5 mph - N/A   Scattered Clouds
5:53 AM 66.0 °F - 64.9 °F 96% 29.95 in 10.0 mi WSW 5.8 mph - N/A   Partly Cloudy
6:53 AM 68.0 °F - 66.0 °F 93% 29.95 in 9.0 mi West 5.8 mph - N/A   Clear
7:48 AM 69.8 °F - 66.2 °F 88% 29.96 in 10.0 mi WSW 6.9 mph - N/A   Partly Cloudy
7:53 AM 70.0 °F - 66.9 °F 90% 29.95 in 10.0 mi WSW 8.1 mph - N/A   Partly Cloudy
8:13 AM 69.8 °F - 66.2 °F 88% 29.97 in 10.0 mi WSW 9.2 mph - N/A   Mostly Cloudy
8:53 AM 70.0 °F - 66.9 °F 90% 29.97 in 10.0 mi WNW 5.8 mph - N/A   Overcast
9:53 AM 71.1 °F - 66.0 °F 84% 29.96 in 10.0 mi West 4.6 mph - N/A   Overcast
10:53 AM 72.0 °F - 66.9 °F 84% 29.96 in 10.0 mi NNW 4.6 mph - N/A   Overcast
11:53 AM 73.9 °F - 68.0 °F 82% 29.95 in 10.0 mi NW 3.5 mph - N/A   Overcast
12:17 PM 75.2 °F - 66.2 °F 73% 29.96 in 10.0 mi Calm Calm - N/A   Overcast
12:53 PM 73.9 °F - 66.9 °F 79% 29.96 in 10.0 mi Calm Calm - N/A   Overcast
1:53 PM 77.0 °F - 69.1 °F 76% 29.95 in 10.0 mi SW 4.6 mph - N/A   Overcast
2:53 PM 78.1 °F - 69.1 °F 74% 29.95 in 10.0 mi SSE 5.8 mph - N/A   Overcast
3:15 PM 78.8 °F - 68.0 °F 69% 29.96 in 10.0 mi Calm Calm - N/A   Scattered Clouds
3:53 PM 80.1 °F 83.2 °F 70.0 °F 71% 29.94 in 10.0 mi West 4.6 mph - N/A   Clear
4:53 PM 81.0 °F 84.1 °F 69.1 °F 67% 29.94 in 10.0 mi West 5.8 mph - N/A   Clear
5:53 PM 81.0 °F 83.8 °F 68.0 °F 65% 29.92 in 10.0 mi Variable 4.6 mph - N/A   Clear
6:53 PM 81.0 °F 83.3 °F 66.9 °F 62% 29.91 in 10.0 mi WSW 4.6 mph - N/A   Clear
7:53 PM 79.0 °F - 69.1 °F 72% 29.92 in 10.0 mi West 3.5 mph - N/A   Clear
8:53 PM 75.0 °F - 68.0 °F 79% 29.91 in 10.0 mi NW 3.5 mph - N/A   Clear
9:53 PM 71.1 °F - 68.0 °F 90% 29.95 in 10.0 mi Calm Calm - N/A   Clear
10:53 PM 70.0 °F - 66.9 °F 90% 29.95 in 10.0 mi Calm Calm - N/A   Clear
11:53 PM 69.1 °F - 66.0 °F 90% 29.96 in 10.0 mi WNW 3.5 mph - N/A   Clear